This demonstration page uses our WeatherBlox Daily Observations layout. Learn more.

Left ArrowRight Arrow

34.74481, -87.66753

Hourly Observations for June 3, 2019

Temp ( °F °C ) Dew Point ( °F °C ) Humidity (%) Winds ( mph kmh ) Pressure ( in mb ) Visibility ( mi km ) Precip ( " mm )
12:53 am 00:53 Clear 74 23.3 67 19.4 79 79 Calm 29.92 1013 10 16 0.00 0.00
1:53 am 01:53 Clear 75 23.9 65 18.3 71 71 VRB 5 7 29.93 1014 10 16 0.00 0.00
2:53 am 02:53 Clear 72 22.2 65 18.3 79 79 Calm 29.94 1014 10 16 0.00 0.00
3:53 am 03:53 Clear 70 21.1 64 17.8 82 82 Calm 29.96 1015 10 16 0.00 0.00
4:53 am 04:53 Clear 70 21.1 64 17.8 82 82 Calm 29.97 1015 10 16 0.00 0.00
5:53 am 05:53 Sunny 67 19.4 63 17.2 87 87 WSW 3 6 30.00 1016 10 16 0.00 0.00
6:53 am 06:53 Sunny 73 22.8 63 17.2 71 71 VRB 3 6 30.02 1017 10 16 0.00 0.00
7:53 am 07:53 Partly Cloudy 75 23.9 61 16.1 62 62 NE 7 11 30.03 1017 10 16 0.00 0.00
8:53 am 08:53 Sunny 79 26.1 60 15.6 52 52 ENE 8 13 30.04 1017 10 16 0.00 0.00
9:53 am 09:53 Sunny 82 27.8 60 15.6 47 47 NE 6 9 30.04 1017 10 16 0.00 0.00
10:53 am 10:53 Sunny 83 28.3 60 15.6 46 46 VRB 7 11 30.06 1018 10 16 0.00 0.00
11:53 am 11:53 Mostly Sunny 85 29.4 57 13.9 39 39 undefined N/A 30.06 1018 10 16 0.00 0.00
12:53 pm 12:53 Sunny 88 31.1 54 12.2 31 31 VRB 5 7 30.05 1018 10 16 0.00 0.00
1:53 pm 13:53 Sunny 88 31.1 55 12.8 33 33 undefined N/A 30.03 1017 10 16 0.00 0.00
2:53 pm 14:53 Sunny 88 31.1 54 12.2 31 31 NNE 7 11 30.02 1017 10 16 0.00 0.00
4:53 pm 16:53 Sunny 87 30.6 56 13.3 35 35 NNE 10 17 30.00 1016 10 16 0.00 0.00
5:53 pm 17:53 Sunny 85 29.4 54 12.2 35 35 NE 9 15 30.00 1016 10 16 0.00 0.00
6:53 pm 18:53 Sunny 83 28.3 55 12.8 38 38 NE 7 11 30.01 1016 10 16 0.00 0.00
7:53 pm 19:53 Sunny 79 26.1 57 13.9 47 47 NE 6 9 30.03 1017 10 16 0.00 0.00
8:53 pm 20:53 Clear 77 25 58 14.4 52 52 NE 6 9 30.03 1017 10 16 0.00 0.00
9:53 pm 21:53 Clear 76 24.4 58 14.4 54 54 NE 7 11 30.04 1017 10 16 0.00 0.00
10:53 pm 22:53 Clear 75 23.9 56 13.3 52 52 ENE 7 11 30.05 1018 10 16 0.00 0.00
11:53 pm 23:53 Clear 73 22.8 56 13.3 55 55 Calm 30.04 1017 10 16 0.00 0.00

Powered by AerisWeather